Regional Weather Roundup
Issued by NWS Charleston, SC

Current Version | Previous Version | Text Only | Print | Product List | Glossary Off
Versions: 1 2 3 4 5 6 7 8 9 10 11 12 13 14 15 16 17 18 19 20 21 22 23 24 25 26 27 28 29 30 31 32 33 34 35 36 37 38 39 40 41 42 43 44 45 46 47 48 49 50

849
ASUS42 KCHS 290527
RWRCHS

REGIONAL WEATHER ROUNDUP
NATIONAL WEATHER SERVICE CHARLESTON SC
100 AM EDT SAT APR 29 2017

NOTE: "FAIR" INDICATES FEW OR NO CLOUDS BELOW 12,000 FEET WITH NO
SIGNIFICANT WEATHER AND/OR OBSTRUCTIONS TO VISIBILITY.

NOT ALL STATIONS ARE QUALITY CONTROLLED. USE DATA WITH CAUTION...
ESPECIALLY DEWPOINT OBSERVATIONS.

SCZ027-030-031-034>040-042>050-290600-
...SOUTHEAST SOUTH CAROLINA...

CITY           SKY/WX    TMP DP  RH WIND       PRES   REMARKS
N CHARLESTON   PTCLDY    74  71  91 S8        30.14S
WATERFRONT PRK   N/A     76  74  93 S12       30.12F
JOHNS ISLAND   FAIR      75  73  94 S10       30.15S
PINOPOLIS        N/A     75  73  94 VRB2      30.07R
MONCKS CORNER  CLOUDY    73  72  94 S5        30.14S FOG
SUMMERVILLE    CLOUDY    73  72  94 S3        30.15S
BEAUFORT MCAS  PTCLDY    77  75  93 S8        30.14S
BEAUFORT ARPT  FAIR      73  72  94 S10G16    30.14S
HILTON HEAD IS MOCLDY    75  75 100 VRB7G14   30.15S FOG
WALTERBORO     PTCLDY    73  72  94 S6        30.14F
ALLENDALE      MOCLDY    75  72  88 S6        30.12R

...SOUTHERN MIDLANDS AND PEE DEE...

CITY           SKY/WX    TMP DP  RH WIND       PRES   REMARKS
GEORGETOWN     CLOUDY    73  73 100 S6        30.16S
KINGSTREE      CLOUDY    73  72  94 S6        30.14S
ORANGEBURG     CLOUDY    74  71  91 S6        30.13S
BARNWELL       FAIR      75  73  94 S6        30.12S
AIKEN          FAIR      72  68  88 S5        30.15S
MANNING        CLOUDY    73  70  88 S18       30.13F
COLUMBIA       CLEAR     77  70  79 S6        30.10S
SUMTER         CLEAR     74  70  88 S6        30.11R
FLORENCE       MOCLDY    74  73  97 S8        30.14R
MYRTLE BEACH   CLOUDY    75  73  93 S10       30.17S
N MYRTLE BEACH MOCLDY    74  74 100 S9        30.16S

$$

GAZ063-065-086>088-099>101-113>116-118-119-134>141-150-290600-
...SOUTHEAST GEORGIA...

CITY           SKY/WX    TMP DP  RH WIND       PRES   REMARKS
SAVANNAH ARPT  CLEAR     76  71  85 S12       30.13S
HUNTER AAF     CLEAR     75  75 100 S8        30.12R
FORT STEWART   CLEAR     74  70  87 SE5       30.11S
STATESBORO     CLEAR     76  71  85 S6        30.13R
SYLVANIA       PTCLDY   N/A N/A N/A CALM      30.14R
CLAXTON        FAIR      75  75 100 CALM      30.13R

...CSRA...CENTRAL AND FAR SOUTHEAST GEORGIA...

CITY           SKY/WX    TMP DP  RH WIND       PRES   REMARKS
THOMSON        CLEAR     70  68  92 SW5       30.15S
AUGUSTA-BUSH   CLEAR     77  71  82 SE7       30.10R HAZE
AUGUSTA-DANIEL CLEAR     77  69  76 SE7       30.11S
SWAINSBORO     FAIR      77  70  78 S6        30.13S
VIDALIA        CLEAR     77  70  78 S7        30.13R
EASTMAN        FAIR      72  61  67 CALM      30.13S
HAZLEHURST     FAIR      77  73  85 SE6       30.11S
ALMA           PTCLDY    76  70  82 SE5       30.11S
WAYCROSS       CLEAR     78  74  86 SE3       30.12S
JESUP          FAIR      73  68  83 S3        30.13S
BAXLEY         FAIR      77  77 100 S3        30.12S
BRUNSWICK      CLOUDY    77  75  94 SE13      30.14S
SAINT SIMONS   CLOUDY    76  73  91 S9        30.14R

$$

SCZ027-028-034-036>038-045-046-048>050-GAZ119-141-290600-
...LAKE AND SUPPLEMENTAL COASTAL OBSERVATIONS...

STATION/POSITION TIME  TEMP    WIND        PRES    WAVE   SWELL
                       AIR SEA DIR/SP/G            HT/PER HT/PER/DIR
                 (UTC) (F)     (DEG/KT/KT) (MB)    (FT/S) (FT/S/D)
WINYAH BAY       0445   75     200/  8     1021.0S
LAKE MURRAY      0450   76     180/  7/  9 1019.0R
ACE BASIN NERRS  0445   76     180/  1     1021.0S
FORT PULASKI     0500   75 76  190/  6/ 10 1021.0
SAPELO ISLAND    0430   76     160/  9     1020.0S

$$

ANZ835-935-AMZ111-154-330-350-352-354-370-450-454-472-290600-
...C-MAN AND BUOY OBSERVATIONS...

STATION/POSITION TIME  TEMP    WIND        PRES    WAVE   SWELL
                       AIR SEA DIR/SP/G            HT/PER HT/PER/DIR
                 (UTC) (F)     (DEG/KT/KT) (MB)    (FT/S) (FT/S/D)
BUOY 41004       0500   76 75  170/ 12/ 16 1021.0
BUOY 41008       0450   74 73  140/ 12/ 14 1020.0R   3/ 8   2/100/ 8
FOLLY BEACH CMAN 0500   75     170/ 15/ 17 1021.3S
CAPERS NEARSHORE 0508   75 75  180/ 14/ 17 1020.7R
FRIPP NEARSHORE  0508   75 73  180/ 14/ 17 1020.2R


STATION/POSITION TIME  TEMP    WIND        PRES    WAVE   SWELL
                       AIR SEA DIR/SP/G            HT/PER HT/PER/DIR
                 (UTC) (F)     (DEG/KT/KT) (MB)    (FT/S) (FT/S/D)
5E ST. MARYS GA  0500      74                N/A     3/ 5
FRYING PAN BUOY  0500   75 73  190/ 10/ 12 1021.8
BUOY 41025       0450   77 76  200/ 16/ 19 1022.1R   4/ 8   2/ 90/ 8
CAPE LOOKOUT NC  0500   73     190/  8/  9 1021.8R
BUOY 41002       0450   74 74  150/ 14/ 17 1024.3F   3/ 8   2/ 50/ 8
BUOY 41010       0500   77 79  120/ 14/ 17 1022.0
ST AUGUSTINE FL  0500   76 78  150/ 17/ 18 1021.2R


$$




USA.gov is the U.S. government's official web portal to all federal, state and local government web resources and services.